Weather History for Sidney, NE

Change the Weather History Date:

Sunday, September 2, 2012

  Actual Average Record
Temperature  
Mean Temperature 78 °F 70 °F  
Max Temperature 93 °F 85 °F 99 °F (1983)
Min Temperature 62 °F 54 °F 32 °F (2006)
Degree Days  
Heating Degree Days 0 1  
Month to date heating degree days 0 2  
Since 1 July heating degree days 11 13  
Cooling Degree Days 13 6  
Month to date cooling degree days 27 12  
Year to date cooling degree days 1116 754  
Growing Degree Days 28 (Base 50)    
Moisture  
Dew Point 43 °F    
Average Humidity 35    
Maximum Humidity 56    
Minimum Humidity 14    
Precipitation  
Precipitation T in 0.06 in 0.83 in (1966)
Month to date precipitation T 0.12  
Year to date precipitation 5.88 15.28  
Sea Level Pressure  
Sea Level Pressure 29.91 in    
Wind  
Wind Speed 11 mph (NW)    
Max Wind Speed 23 mph    
Max Gust Speed 30 mph    
Visibility 10 miles    
Events      
T = Trace of Precipitation, MM = Missing Value Source: NWS Daily Summary

Daily Weather History Graph

Daily Weather History Graph

Search for Another Location

Airport:

Trip Planner

Search our weather history database for the weather conditions in past years. The results will help you decide how hot, cold, wet, or windy it might be!

Date:

Astronomy

Sep. 02, 2012 Rise Set
Actual Time 6:20 AM MDT 7:22 PM MDT
Civil Twilight 5:51 AM MDT 7:50 PM MDT
Nautical Twilight 5:18 AM MDT 8:23 PM MDT
Astronomical Twilight 4:43 AM MDT 8:58 PM MDT
Moon 8:08 PM MDT (9/2) 8:32 AM MDT (9/2)
Length of Visible Light 13h 58m
Length of Day
13h 01m
Waning Gibbous, 95% of the Moon is Illuminated
Sep 2
Waning Gibbous
Sep 8
Last Quarter
Sep 15
New
Sep 22
First Quarter
Sep 29
Full

Hourly Weather History & Observations

Time (MDT) Temp. Dew Point Humidity Pressure Visibility Wind Dir Wind Speed Gust Speed Precip Events Conditions
12:53 AM 70.0 °F 45.0 °F 41% 29.85 in 10.0 mi NW 13.8 mph 21.9 mph N/A   Clear
2:53 AM 66.9 °F 45.0 °F 45% 29.87 in 10.0 mi NW 8.1 mph - N/A   Clear
3:53 AM 66.9 °F 46.9 °F 49% 29.88 in 10.0 mi NW 6.9 mph - N/A   Clear
4:53 AM 64.0 °F 48.0 °F 56% 29.87 in 10.0 mi WNW 4.6 mph - N/A   Clear
5:53 AM 63.0 °F 46.0 °F 54% 29.88 in 10.0 mi WNW 8.1 mph - N/A   Clear
6:53 AM 69.1 °F 46.0 °F 44% 29.90 in 10.0 mi NW 10.4 mph - N/A   Clear
7:53 AM 72.0 °F 46.9 °F 41% 29.91 in 10.0 mi NW 10.4 mph - N/A   Clear
8:53 AM 75.9 °F 48.0 °F 37% 29.93 in 10.0 mi NW 12.7 mph - N/A   Clear
9:53 AM 80.1 °F 48.9 °F 34% 29.93 in 10.0 mi NNW 16.1 mph - N/A   Partly Cloudy
10:53 AM 81.0 °F 46.9 °F 30% 29.95 in 10.0 mi NNW 16.1 mph 25.3 mph 0.00 in   Partly Cloudy
11:53 AM 87.1 °F 45.0 °F 23% 29.93 in 10.0 mi North 13.8 mph 24.2 mph N/A   Clear
12:53 PM 91.0 °F 44.1 °F 20% 29.91 in 10.0 mi Variable 6.9 mph 19.6 mph N/A   Clear
1:53 PM 91.0 °F 39.9 °F 17% 29.89 in 10.0 mi North 10.4 mph 17.3 mph N/A   Clear
2:53 PM 93.0 °F 37.0 °F 14% 29.89 in 10.0 mi NW 9.2 mph 21.9 mph N/A   Clear
3:53 PM 91.0 °F 39.0 °F 16% 29.88 in 10.0 mi North 12.7 mph - N/A   Clear
4:53 PM 91.0 °F 37.0 °F 15% 29.88 in 10.0 mi NE 16.1 mph 20.7 mph N/A   Clear
5:53 PM 90.0 °F 37.0 °F 15% 29.88 in 10.0 mi NNE 13.8 mph 20.7 mph N/A   Clear
6:53 PM 84.0 °F 37.0 °F 19% 29.89 in 10.0 mi NNE 9.2 mph - N/A   Clear
7:53 PM 75.0 °F 36.0 °F 24% 29.92 in 10.0 mi North 4.6 mph - N/A   Scattered Clouds
8:53 PM 78.1 °F 39.9 °F 25% 29.94 in 10.0 mi WNW 13.8 mph - N/A   Mostly Cloudy
9:53 PM 75.9 °F 44.1 °F 32% 29.94 in 10.0 mi Variable 6.9 mph - N/A   Overcast
10:14 PM 78.8 °F 42.8 °F 28% 30.11 in 10.0 mi South 13.8 mph - N/A   Mostly Cloudy
10:53 PM 75.0 °F 43.0 °F 32% 29.93 in 10.0 mi SW 9.2 mph - N/A   Partly Cloudy
11:53 PM 72.0 °F 43.0 °F 35% 29.91 in 10.0 mi SW 9.2 mph - N/A   Partly Cloudy